Temperature
5 5 6 6 7 7 8 8 8 9 9 9 9 9 9 9 10 10 10 10 10 10 10 10 10 10 10 10 10 9 9 9 9 9 8 8 8 8 9 9 9 9 9
4 5 5 5 6 6 7 7 7 8 8 8 8 9 9 9 9 9 9 9 10 10 9 9 10 9 9 9 9 9 9 9 9 9 8 8 8 8 8 8 8 9 9
3 4 4 5 5 6 6 6 7 7 7 8 8 8 8 8 8 9 9 9 9 9 9 9 9 9 9 9 9 9 9 9 8 8 8 8 8 8 8 8 8 8 8
3 3 3 4 4 5 5 6 6 6 7 7 7 7 8 8 8 8 8 8 8 8 8 8 8 8 8 8 8 8 8 8 8 8 8 8 8 8 7 8 8 8 8
2 3 3 3 4 4 5 5 5 5 6 6 6 7 7 7 7 7 7 8 8 8 8 8 8 8 8 8 8 8 8 8 8 8 8 8 8 8 8 7 7 8 8
2 2 3 3 3 4 4 4 5 5 5 5 6 6 6 6 6 7 7 7 7 7 7 7 7 7 7 7 8 8 7 8 8 8 8 8 8 8 8 7 7 7 7
1 1 2 2 3 3 3 4 4 4 4 4 5 5 5 5 6 6 6 6 6 6 7 7 7 7 7 7 7 7 7 7 7 7 7 7 7 7 7 7 7 7 7
0 1 1 2 2 2 3 3 3 3 4 4 4 4 5 5 5 5 5 5 6 6 6 6 6 6 6 6 7 7 7 7 7 7 7 7 7 7 7 7 7 6 6
-0 0 1 1 1 2 2 2 3 3 3 3 3 4 4 4 4 4 4 5 5 5 5 6 6 6 6 6 6 6 6 6 6 6 6 6 6 6 6 6 6 6 6
-1 -0 0 0 1 1 1 2 2 2 2 2 3 3 3 3 4 4 4 4 4 4 5 5 5 5 5 5 5 5 5 5 6 6 6 6 6 6 6 6 6 6 6
-1 -1 -1 -0 0 1 1 1 1 1 2 2 2 2 2 3 3 3 3 3 4 4 4 4 4 4 5 4 4 4 5 5 5 5 5 5 5 5 5 5 5 5 5
-2 -1 -1 -1 -0 0 0 0 1 1 1 1 1 2 2 2 2 2 3 3 3 3 3 3 4 4 4 4 4 4 4 4 4 4 4 4 4 5 5 5 5 5 5
-2 -2 -2 -1 -1 -1 -0 -0 -0 0 0 0 1 1 1 1 2 2 2 2 2 2 3 3 3 3 3 3 3 3 3 4 4 4 4 4 4 4 4 4 4 4 4
-3 -2 -2 -2 -2 -1 -1 -1 -1 -1 -1 -0 -0 -0 0 0 1 1 1 1 1 2 2 2 2 2 2 3 3 3 3 3 3 3 3 3 3 3 3 3 4 4 4
-3 -3 -3 -3 -2 -2 -2 -2 -2 -1 -1 -1 -1 -1 -1 -0 0 0 1 1 1 1 1 1 1 1 2 2 2 2 2 2 2 2 2 2 2 2 3 3 3 3 3
-4 -4 -4 -3 -3 -3 -2 -2 -2 -2 -2 -2 -2 -1 -1 -1 -1 -0 -0 -0 -0 -0 0 0 0 1 1 1 1 1 1 1 1 1 2 2 2 2 2 2 2 2 2
-5 -5 -4 -4 -4 -3 -3 -3 -3 -2 -2 -2 -2 -2 -2 -2 -1 -1 -1 -1 -1 -1 -1 -0 -0 -0 0 0 0 0 0 0 1 1 1 1 1 1 1 1 1 1 1
-5 -5 -5 -4 -4 -4 -4 -3 -3 -3 -3 -3 -2 -2 -2 -2 -2 -2 -2 -2 -2 -1 -1 -1 -1 -1 -0 -0 -0 -0 -0 -0 0 0 0 0 1 1 1 1 1 1 1
-5 -5 -5 -5 -4 -4 -4 -4 -4 -3 -3 -3 -3 -3 -3 -3 -3 -3 -3 -2 -2 -2 -2 -2 -2 -1 -1 -1 -1 -1 -1 -1 -0 -0 -0 -0 -0 -0 -0 0 0 0 1
-6 -5 -5 -5 -5 -5 -4 -4 -4 -4 -4 -4 -4 -3 -3 -3 -3 -3 -3 -3 -3 -3 -3 -3 -2 -2 -2 -2 -2 -1 -2 -1 -1 -1 -1 -1 -1 -1 -1 -0 -0 -0 -0
-6 -6 -6 -5 -5 -5 -5 -5 -5 -5 -4 -4 -4 -4 -4 -4 -4 -4 -3 -3 -3 -3 -3 -3 -3 -3 -2 -2 -2 -2 -2 -2 -2 -2 -1 -1 -1 -1 -1 -1 -1 -1 -1
-6 -6 -6 -6 -6 -6 -6 -5 -5 -5 -5 -5 -5 -5 -4 -4 -4 -4 -4 -4 -4 -4 -4 -4 -3 -3 -3 -3 -3 -3 -3 -3 -2 -2 -2 -2 -2 -2 -2 -2 -2 -2 -2
-7 -7 -7 -6 -6 -6 -6 -6 -6 -6 -6 -6 -5 -5 -5 -5 -5 -5 -5 -5 -5 -4 -4 -4 -4 -4 -4 -3 -3 -3 -3 -3 -3 -3 -3 -3 -3 -3 -2 -2 -2 -2 -2
-7 -7 -7 -7 -7 -7 -7 -7 -7 -7 -6 -6 -6 -6 -6 -5 -5 -5 -5 -5 -5 -5 -5 -5 -5 -4 -4 -4 -4 -4 -4 -3 -3 -3 -3 -3 -3 -3 -3 -3 -3 -3 -3
-7 -7 -7 -7 -7 -7 -7 -7 -7 -7 -7 -7 -7 -6 -6 -6 -6 -6 -6 -6 -6 -6 -6 -5 -5 -5 -5 -4 -4 -4 -4 -4 -4 -4 -4 -4 -4 -4 -4 -4 -4 -4 -4
-8 -8 -8 -8 -7 -7 -7 -7 -7 -7 -7 -7 -7 -7 -7 -7 -7 -6 -6 -6 -6 -6 -6 -6 -6 -6 -5 -5 -5 -5 -4 -4 -4 -4 -4 -4 -4 -4 -4 -4 -4 -4 -4
Wind_Speed
1 1 2 3 4 4 3 3 3 3 3 2 2 2 2 2 2 3 5 6 6 7 6 4 4 5 3 3 4 4 5 3 4 4 3 2 2 2 1 2 3 3 4
2 2 3 3 3 3 3 3 3 2 2 1 1 1 1 1 1 2 4 5 5 5 5 4 4 4 3 4 4 4 3 2 2 3 3 1 1 2 1 0 1 2 3
2 1 1 2 2 3 2 2 2 2 3 3 2 3 2 2 2 2 2 3 4 4 4 4 4 4 4 4 4 4 4 3 1 2 3 3 3 1 1 1 1 1 2
1 2 2 2 2 2 2 2 2 2 3 3 3 4 3 2 0 1 1 2 3 3 3 4 4 3 3 3 3 2 2 4 3 1 1 1 3 3 1 1 1 1 2
1 2 1 1 1 2 2 3 2 2 2 3 3 3 2 1 1 2 2 2 2 2 3 3 3 3 2 2 3 2 2 2 3 3 2 2 1 1 2 2 2 1 2
2 2 2 2 2 3 3 3 3 3 3 3 3 3 3 2 2 2 1 1 1 1 2 2 2 2 2 2 2 2 2 2 2 2 2 3 3 3 3 2 2 2 2
2 2 2 2 2 2 2 2 3 3 3 2 2 3 3 2 2 1 1 1 1 1 0 1 1 1 2 2 2 2 2 2 2 2 2 2 3 3 3 3 2 2 2
2 2 2 2 2 2 2 2 3 3 3 2 1 2 2 1 1 1 0 0 0 1 0 1 1 1 2 2 2 1 2 2 2 2 2 1 2 2 3 3 3 1 1
3 3 3 3 3 3 2 2 2 2 2 2 2 2 2 1 1 1 1 0 1 1 1 1 0 1 1 2 2 2 2 2 2 2 2 2 2 2 2 3 3 4 3
4 4 3 3 3 2 2 2 2 2 2 2 2 2 1 1 1 1 1 1 1 2 1 1 1 1 1 1 2 2 2 2 2 2 2 2 1 1 2 3 3 3 3
2 3 3 3 3 3 3 3 3 3 2 2 2 2 2 1 1 1 1 1 1 1 1 1 1 1 1 2 2 2 2 3 2 2 3 3 2 2 2 2 2 2 3
2 3 3 3 4 4 4 3 3 2 2 1 1 1 1 1 1 0 1 0 0 1 1 1 1 1 1 1 2 3 3 3 3 3 3 3 2 3 2 2 3 3 3
3 3 3 3 3 3 4 4 3 3 2 1 1 0 1 1 1 1 1 1 0 1 1 1 1 2 2 2 2 2 3 3 3 3 4 4 3 4 3 3 3 3 3
3 3 3 3 3 3 3 3 3 3 3 2 1 0 1 1 1 1 1 1 1 1 1 1 2 2 2 3 2 2 2 3 3 3 3 4 4 5 4 4 4 3 3
5 5 4 4 4 4 3 3 3 4 3 2 2 1 1 1 1 1 1 1 1 2 1 1 2 2 3 3 3 3 3 3 2 2 2 3 4 5 4 4 3 4 3
6 6 5 5 5 4 4 4 4 4 3 2 2 2 1 1 1 1 1 1 2 2 2 2 2 3 3 4 5 4 3 3 3 3 3 3 3 4 5 5 5 5 4
5 6 5 5 5 5 4 4 4 4 3 3 3 2 2 1 1 1 1 1 2 2 2 3 2 3 4 5 5 5 3 3 3 3 3 3 3 4 3 4 5 5 6
5 6 5 5 5 4 4 4 3 3 3 3 3 3 2 2 2 1 2 2 2 2 3 3 3 3 4 5 5 4 2 2 3 3 4 4 3 3 3 3 3 3 4
5 5 5 4 4 5 4 3 3 3 3 4 4 3 3 2 2 2 3 3 2 3 3 3 3 3 4 4 4 3 2 2 3 3 3 3 3 5 5 4 4 3 4
4 4 4 4 4 5 4 3 3 3 4 4 4 4 3 3 3 3 3 3 2 3 3 3 3 3 3 4 4 3 2 2 2 2 2 4 5 5 5 4 4 4 4
5 4 4 4 4 5 4 3 3 4 5 5 4 4 3 3 3 3 3 2 2 2 2 3 3 3 3 3 4 4 2 3 3 3 3 3 5 5 5 5 4 5 4
5 4 4 4 5 4 3 3 4 5 4 4 4 4 4 3 3 2 2 2 2 2 2 2 3 3 3 3 3 4 4 4 3 3 3 3 4 4 5 4 4 5 3
5 4 3 4 5 4 3 3 5 4 4 3 3 4 4 3 3 2 2 2 2 2 2 2 2 3 3 3 4 4 4 3 3 3 4 4 4 4 3 3 3 3 2
4 4 4 4 5 5 4 3 4 4 3 3 3 4 3 3 3 2 2 2 2 2 2 3 3 3 2 2 2 2 2 2 2 2 2 3 3 2 2 2 2 1 2
5 4 4 4 5 5 4 4 3 3 3 3 3 4 3 2 2 3 2 2 2 3 3 3 3 3 3 4 4 3 3 2 3 2 1 1 1 1 1 1 1 1 1
5 5 5 5 5 4 4 4 3 2 2 3 3 3 3 2 2 2 3 5 4 5 5 5 4 4 4 5 5 4 4 4 3 2 1 2 2 2 2 2 1 1 1
Wind_Direction
108 65 38 37 46 56 70 74 69 61 71 82 100 111 103 93 86 92 113 121 126 130 127 125 130 131 132 136 131 126 123 120 122 108 86 39 39 52 94 123 130 144 149
74 61 43 42 48 52 66 78 79 68 67 62 101 149 141 120 106 91 92 110 114 124 133 132 134 131 129 132 129 127 127 137 139 131 126 121 9 349 349 92 145 153 153
131 109 79 51 54 51 54 78 71 69 60 55 80 81 78 69 63 73 78 86 111 115 128 137 136 135 139 154 157 147 144 159 168 143 148 157 194 225 319 302 205 179 165
100 107 80 54 58 41 42 58 65 65 70 82 100 114 122 124 102 80 95 93 110 114 119 131 134 137 137 152 167 156 147 157 170 168 157 152 148 159 178 307 278 228 211
81 107 94 85 58 43 47 45 48 64 61 79 98 106 100 92 81 77 85 84 82 102 110 127 129 133 140 143 147 152 155 166 175 175 165 135 115 135 157 202 251 267 241
41 69 59 61 57 46 47 50 47 48 57 72 89 92 94 84 85 73 84 66 60 77 92 110 130 142 139 149 151 150 165 182 178 182 177 168 165 175 165 185 212 233 249
42 49 43 48 58 47 41 47 51 43 51 55 82 93 91 100 118 104 106 96 68 18 202 145 154 159 168 169 151 142 165 179 181 188 203 198 195 170 162 163 184 215 260
31 33 37 49 45 40 41 51 53 47 45 44 61 89 89 86 67 60 50 261 238 267 248 168 157 165 174 172 158 154 177 167 192 202 198 210 217 185 175 173 169 187 253
11 13 20 34 37 38 35 49 60 49 47 33 32 70 78 70 35 10 20 3 358 345 22 54 139 165 176 173 160 185 195 181 199 210 203 215 227 197 190 176 178 178 212
6 8 18 21 25 30 30 37 57 59 47 46 31 35 46 42 47 50 22 350 0 6 8 19 1 190 178 174 171 191 195 194 211 203 201 217 232 217 195 189 194 193 197
355 -0 4 13 26 30 35 36 35 39 33 31 49 35 31 30 38 25 336 345 3 359 327 330 314 265 212 189 188 206 202 204 215 215 210 223 219 217 214 205 195 197 191
6 3 360 18 27 24 23 20 13 15 5 3 46 39 14 12 22 348 310 317 303 320 300 276 261 264 247 213 202 211 215 210 216 222 219 231 226 222 222 216 214 212 202
5 3 5 8 18 15 8 3 358 350 346 351 0 18 359 324 297 298 302 308 301 314 323 282 250 253 256 238 222 212 219 220 223 224 224 231 219 228 227 222 221 219 214
356 2 356 352 356 357 354 352 349 350 346 338 314 290 288 278 281 293 294 291 277 261 275 288 277 265 260 252 231 217 224 226 227 225 227 229 224 227 221 223 221 215 211
357 352 341 340 343 342 343 346 346 342 337 327 309 292 281 279 285 298 310 317 300 283 276 284 283 276 267 253 231 223 227 226 236 240 239 240 242 242 231 231 222 209 213
340 337 335 339 334 330 329 332 333 329 328 321 304 298 293 293 295 296 297 302 301 297 289 274 269 269 269 267 252 237 228 229 230 241 250 258 260 258 249 245 236 222 220
328 325 323 320 317 315 313 314 314 320 329 321 315 314 303 292 288 294 302 295 291 293 288 279 271 271 270 270 257 247 230 234 235 235 243 257 256 260 256 255 253 249 244
317 316 315 317 318 318 319 319 320 322 327 321 314 311 311 301 303 305 292 288 284 277 280 283 280 282 280 277 263 252 231 238 240 238 234 236 244 243 241 235 245 254 257
301 300 301 305 316 321 322 328 332 333 334 322 313 306 300 297 300 299 290 287 284 282 280 278 278 278 283 277 259 257 226 236 248 247 237 230 239 249 245 235 235 255 271
312 313 317 325 325 321 328 339 334 334 325 316 309 305 298 291 287 287 289 290 283 282 289 291 285 273 274 274 262 259 222 231 248 257 250 246 244 247 244 232 226 244 260
313 317 320 322 315 318 329 330 327 318 312 314 314 314 309 300 291 294 297 296 293 297 296 300 301 290 283 277 269 265 241 224 232 250 258 254 251 254 252 247 236 238 244
318 318 318 318 320 323 327 323 316 311 318 327 329 323 316 311 313 304 303 303 291 283 288 299 307 307 299 289 274 273 266 241 234 246 254 249 255 263 265 264 251 244 244
314 313 307 313 319 324 319 306 308 317 324 331 329 322 321 325 325 308 297 300 290 275 284 287 291 303 302 293 292 288 285 264 251 244 244 249 256 266 274 269 264 251 228
312 316 315 317 316 317 313 298 305 316 323 324 321 320 324 328 335 329 313 302 290 281 277 273 278 287 296 294 291 277 279 263 251 242 232 247 261 272 270 275 286 278 230
311 314 311 304 303 310 312 309 310 315 323 320 322 326 327 323 332 335 326 313 299 282 280 273 267 262 270 276 278 270 259 231 223 216 223 227 239 253 262 275 273 255 258
312 313 312 307 306 311 315 314 309 305 310 319 322 318 317 319 326 328 332 334 329 332 328 314 303 301 299 293 294 291 276 250 224 205 191 205 213 223 228 237 249 253 248
Height
1508 1509 1509 1509 1510 1511 1512 1514 1515 1517 1518 1520 1521 1523 1525 1527 1529 1532 1533 1535 1537 1539 1540 1542 1544 1545 1547 1549 1550 1552 1553 1555 1557 1559 1560 1562 1563 1564 1564 1565 1566 1567 1568
1506 1507 1507 1508 1508 1510 1511 1513 1514 1515 1517 1518 1520 1522 1523 1525 1528 1530 1532 1533 1534 1536 1538 1540 1542 1543 1545 1547 1548 1550 1551 1553 1555 1556 1558 1559 1562 1561 1562 1563 1564 1565 1566
1505 1506 1506 1507 1507 1508 1510 1511 1512 1514 1515 1517 1519 1521 1522 1524 1525 1527 1529 1531 1533 1534 1536 1538 1540 1541 1543 1544 1546 1548 1549 1550 1552 1554 1555 1556 1557 1559 1560 1560 1561 1563 1564
1505 1505 1505 1506 1507 1508 1509 1510 1511 1512 1513 1515 1516 1518 1519 1520 1522 1524 1527 1529 1531 1532 1534 1536 1537 1539 1541 1542 1544 1545 1547 1549 1550 1552 1553 1554 1555 1556 1556 1558 1559 1560 1561
1504 1504 1505 1506 1506 1507 1508 1509 1511 1511 1512 1513 1514 1516 1518 1519 1521 1523 1525 1526 1528 1530 1531 1533 1535 1536 1538 1539 1541 1543 1544 1546 1547 1549 1550 1552 1553 1554 1554 1555 1556 1557 1558
1503 1504 1504 1505 1505 1506 1507 1509 1510 1510 1511 1512 1513 1514 1516 1517 1519 1520 1522 1524 1525 1527 1528 1530 1532 1533 1535 1536 1538 1540 1541 1543 1545 1546 1548 1549 1550 1551 1552 1552 1553 1554 1555
1503 1503 1503 1503 1504 1505 1506 1507 1508 1509 1510 1511 1511 1512 1513 1515 1517 1518 1520 1521 1522 1524 1525 1527 1529 1530 1531 1533 1535 1537 1538 1540 1541 1543 1544 1546 1547 1548 1550 1550 1551 1551 1552
1504 1503 1503 1503 1503 1504 1505 1506 1506 1507 1508 1509 1509 1510 1512 1514 1515 1516 1518 1519 1520 1522 1523 1524 1526 1527 1529 1530 1532 1533 1535 1536 1538 1539 1541 1542 1544 1545 1546 1548 1548 1548 1549
1504 1503 1503 1503 1504 1504 1504 1505 1505 1506 1507 1508 1508 1508 1510 1512 1513 1514 1516 1517 1518 1520 1521 1522 1523 1524 1526 1527 1528 1530 1531 1532 1534 1536 1537 1539 1540 1542 1543 1544 1545 1547 1545
1503 1503 1503 1503 1503 1503 1504 1504 1504 1505 1505 1506 1506 1507 1508 1510 1511 1512 1513 1515 1516 1517 1518 1518 1520 1521 1522 1524 1525 1526 1527 1529 1530 1532 1533 1535 1536 1538 1539 1540 1541 1542 1543
1504 1503 1503 1503 1502 1503 1502 1503 1503 1503 1504 1504 1505 1505 1506 1508 1509 1510 1511 1512 1513 1514 1515 1516 1517 1518 1519 1520 1521 1522 1524 1525 1526 1527 1529 1530 1532 1533 1535 1536 1537 1538 1539
1504 1504 1503 1502 1501 1501 1501 1501 1501 1502 1502 1502 1503 1503 1504 1505 1506 1507 1508 1509 1510 1511 1512 1513 1514 1515 1515 1516 1517 1518 1520 1521 1522 1523 1525 1526 1528 1529 1530 1532 1533 1534 1534
1504 1503 1502 1502 1501 1500 1500 1500 1500 1500 1500 1500 1501 1501 1502 1503 1503 1504 1505 1506 1507 1508 1509 1509 1510 1511 1511 1512 1513 1514 1515 1516 1518 1519 1520 1522 1523 1524 1526 1527 1528 1529 1530
1503 1502 1501 1501 1500 1500 1500 1499 1498 1498 1498 1498 1498 1498 1499 1500 1501 1501 1502 1503 1503 1504 1505 1505 1506 1507 1507 1508 1509 1510 1511 1512 1513 1515 1516 1517 1519 1520 1521 1522 1523 1524 1525
1503 1502 1501 1499 1499 1498 1498 1497 1496 1496 1496 1496 1496 1496 1496 1497 1498 1498 1498 1499 1500 1501 1501 1502 1502 1503 1504 1504 1505 1506 1506 1507 1508 1510 1511 1512 1514 1515 1516 1517 1518 1519 1519
1503 1502 1500 1499 1498 1497 1496 1495 1494 1494 1494 1494 1493 1494 1494 1494 1494 1495 1495 1496 1496 1497 1497 1498 1499 1499 1500 1500 1501 1502 1502 1503 1504 1505 1506 1507 1509 1510 1511 1512 1513 1514 1515
1503 1501 1500 1498 1496 1495 1495 1493 1493 1493 1492 1492 1491 1491 1491 1491 1491 1491 1492 1492 1492 1493 1493 1494 1494 1495 1495 1496 1497 1498 1498 1499 1500 1501 1501 1502 1504 1505 1505 1506 1508 1508 1509
1502 1500 1498 1497 1495 1494 1493 1492 1491 1491 1490 1489 1488 1488 1488 1487 1487 1488 1488 1488 1488 1489 1489 1489 1490 1490 1491 1492 1493 1493 1494 1495 1496 1496 1497 1498 1498 1500 1500 1501 1502 1503 1503
1502 1500 1497 1495 1494 1492 1491 1490 1489 1489 1488 1487 1486 1485 1485 1484 1484 1484 1484 1484 1485 1485 1485 1485 1485 1486 1486 1488 1488 1489 1489 1490 1491 1491 1492 1493 1494 1494 1495 1496 1497 1497 1498
1500 1498 1496 1494 1492 1491 1489 1488 1487 1486 1485 1484 1483 1482 1482 1481 1481 1481 1481 1481 1481 1481 1481 1481 1481 1482 1482 1483 1484 1484 1485 1485 1485 1486 1487 1488 1489 1490 1490 1491 1492 1492 1492
1498 1496 1494 1492 1490 1489 1487 1486 1484 1483 1482 1481 1480 1479 1479 1478 1478 1478 1477 1477 1477 1477 1477 1477 1477 1477 1478 1478 1479 1480 1480 1481 1481 1481 1482 1483 1484 1485 1485 1486 1487 1487 1488
1496 1494 1492 1490 1488 1487 1485 1483 1482 1481 1480 1478 1477 1477 1476 1476 1475 1475 1474 1474 1474 1473 1473 1473 1473 1473 1473 1474 1474 1475 1476 1477 1477 1477 1478 1478 1479 1480 1481 1481 1482 1482 1483
1494 1492 1490 1488 1486 1485 1483 1481 1480 1479 1477 1476 1475 1474 1473 1473 1472 1472 1471 1471 1470 1470 1469 1469 1468 1468 1469 1469 1470 1470 1471 1472 1472 1473 1473 1474 1475 1475 1476 1476 1477 1477 1478
1492 1490 1488 1485 1483 1482 1480 1479 1478 1477 1475 1474 1473 1472 1471 1470 1469 1469 1468 1468 1467 1467 1466 1465 1465 1464 1464 1465 1465 1465 1466 1467 1468 1468 1469 1470 1470 1471 1471 1472 1472 1473 1473
1489 1487 1485 1483 1481 1479 1478 1477 1475 1474 1473 1472 1470 1469 1469 1468 1467 1466 1466 1465 1464 1464 1463 1462 1462 1461 1460 1460 1461 1461 1462 1463 1464 1464 1465 1465 1466 1466 1466 1467 1467 1468 1468
1487 1485 1482 1480 1478 1477 1475 1474 1473 1472 1471 1469 1468 1467 1466 1465 1464 1463 1463 1462 1462 1461 1460 1460 1459 1458 1458 1457 1457 1457 1458 1458 1459 1460 1460 1460 1461 1462 1462 1462 1463 1463 1464